Portada
METAR-TAF:

METAR-TAF

Aeroports :

Maradi, Níger

latitud: 13-28N, longitud: 007-05E, altitud: 372 m

Observació

L'informe es va fer fa 27 minuts, a les 06:00 UTC
Vent 8 kt del Est
Temperatura 12°C
Humitat 28%
Pressió 1017 hPa
Visibilitat: 1400 m
Pols estès

METAR: DRRM 210600Z 08008KT 1400 DU NSC 12/M06 Q1017

Hora: 07:27 (06:27 UTC)


TAF: manca

Observacions i pronòstics meteorològics de més de 4000 aeroports (METAR i TAF).

Les estacions disponibles són els punts grocs i vermells al mapa.

Posi el ratolí al punt desitjat per veure el nom de l'estació.

Feu clic per veure les observacions i els pronòstics meteorològics.

Per canviar el mapa: feu clic els botons verds amb una creu de color negre per apropar; al botó verd amb un guió per allunyar la imatge; o en les fletxes verdes per a mapes adjacents.


METAR-TAF: